(°C)
28°
28°
29°
29°
30°
31°
31°
(°C)
34°
35°
35°
35°
36°
36°
37°
ΔΝΔ
ΔΝΔ
ΔΝΔ
ΔΝΔ
ΔΝΔ
ΔΝΔ
ΔΝΔ
(χλμ / ω)
3-9
3-9
4-11
6-14
8-16
9-17
10-18
(χιλιοστά)
0
0
0.3
0.7
1
1
0.9
(%)
18
24
51
74
97
89
80

Ανύψωση ήλιου

/ 5.7°
sun-icon
UV 6
06:48
20:23
Φθίνων αμφίκυρτος (φάση σελήνης) (235°)
23:44
11:14

METAR για Τάμπα (KTPF)

Χρόνος Συνθήκες Θερμοκρασία/
Σημείο δρόσου
Άνεμος Ορατότητα Καιρός Νέφη Πίεση Αλλαγή Ανεπεξέργαστο
VFR 28°C / 25°C 270º 3kt >10km - Scattered Clouds 2200ft - KTPF 281055Z AUTO 27003KT 10SM SCT022 BKN110 28/25 A3003 RMK AO2
VFR 28°C / 25°C variable 0kt >10km - Broken Clouds 11000ft - KTPF 281035Z AUTO 00000KT 10SM BKN110 28/25 A3002 RMK AO2
VFR 28°C / 25°C variable 0kt >10km - Broken Clouds 11000ft - KTPF 281015Z AUTO 00000KT 10SM BKN110 28/25 A3002 RMK AO2
VFR 28°C / 24°C variable 0kt >10km - Broken Clouds 11000ft - KTPF 280955Z AUTO 00000KT 10SM BKN110 28/24 A3002 RMK AO2
VFR 28°C / 25°C variable 0kt >10km - Overcast 11000ft - KTPF 280935Z AUTO 00000KT 10SM OVC110 28/25 A3001 RMK AO2
VFR 28°C / 25°C 240º 3kt >10km - Broken Clouds 11000ft - KTPF 280915Z AUTO 24003KT 10SM BKN110 28/25 A3001 RMK AO2
VFR 28°C / 25°C variable 0kt >10km - Broken Clouds 11000ft - KTPF 280855Z AUTO 00000KT 10SM BKN110 28/25 A3001 RMK AO2
VFR 28°C / 25°C variable 0kt >10km - Broken Clouds 11000ft - KTPF 280835Z AUTO 00000KT 10SM BKN110 28/25 A3001 RMK AO2
VFR 28°C / 25°C variable 0kt >10km - Scattered Clouds 11000ft - KTPF 280815Z AUTO 00000KT 10SM SCT110 28/25 A3001 RMK AO2
VFR 28°C / 25°C 220º 3kt >10km - Broken Clouds 11000ft - KTPF 280755Z AUTO 22003KT 10SM BKN110 28/25 A3001 RMK AO2
VFR 28°C / 25°C 220º 3kt >10km - Overcast 11000ft - KTPF 280735Z AUTO 22003KT 10SM OVC110 28/25 A3001 RMK AO2
VFR 28°C / 25°C variable 0kt >10km - Overcast 11000ft - KTPF 280715Z AUTO 00000KT 10SM OVC110 28/25 A3002 RMK AO2
VFR 28°C / 25°C variable 0kt >10km - Overcast 11000ft - KTPF 280655Z AUTO 00000KT 10SM OVC110 28/25 A3002 RMK AO2
VFR 28°C / 25°C variable 0kt >10km - Broken Clouds 11000ft - KTPF 280635Z AUTO 00000KT 10SM BKN110 28/25 A3002 RMK AO2
VFR 28°C / 25°C variable 0kt >10km - Broken Clouds 11000ft - KTPF 280615Z AUTO 00000KT 10SM BKN110 28/25 A3002 RMK AO2
VFR 28°C / 25°C variable 0kt >10km - Broken Clouds 11000ft - KTPF 280555Z AUTO 00000KT 10SM BKN110 28/25 A3002 RMK AO2
VFR 28°C / 25°C variable 0kt >10km - Broken Clouds 11000ft - KTPF 280535Z AUTO 00000KT 10SM BKN110 28/25 A3003 RMK AO2
VFR 28°C / 25°C variable 0kt >10km - Broken Clouds 11000ft - KTPF 280515Z AUTO 00000KT 10SM BKN110 28/25 A3003 RMK AO2
VFR 28°C / 25°C variable 0kt >10km - Broken Clouds 11000ft - KTPF 280455Z AUTO 00000KT 10SM BKN110 28/25 A3003 RMK AO2
VFR 28°C / 25°C variable 0kt >10km - Scattered Clouds 2400ft - KTPF 280435Z AUTO 00000KT 10SM SCT024 OVC110 28/25 A3004 RMK AO2
VFR 28°C / 25°C 260º 3kt >10km - Scattered Clouds 2400ft - KTPF 280415Z AUTO 26003KT 10SM SCT024 OVC110 28/25 A3004 RMK AO2
VFR 28°C / 25°C variable 0kt >10km - Scattered Clouds 2400ft - KTPF 280355Z AUTO 00000KT 10SM SCT024 OVC110 28/25 A3003 RMK AO2
VFR 28°C / 25°C variable 0kt >10km - Scattered Clouds 2200ft - KTPF 280335Z AUTO 00000KT 10SM SCT022 BKN110 28/25 A3003 RMK AO2
VFR 29°C / 25°C 280º 3kt >10km - Scattered Clouds 2200ft - KTPF 280315Z AUTO 28003KT 10SM SCT022 BKN110 29/25 A3003 RMK AO2

VFR

28°C / 25°C

[Περισσότερο]
Άνεμος 270º 3kt
Ορατότητα >10km
Καιρός -
Νέφη Scattered Clouds 2200ft
Πίεση
Αλλαγή -
Ανεπεξέργαστο KTPF 281055Z AUTO 27003KT 10SM SCT022 BKN110 28/25 A3003 RMK AO2

VFR

28°C / 25°C

[Περισσότερο]
Άνεμος variable 0kt
Ορατότητα >10km
Καιρός -
Νέφη Broken Clouds 11000ft
Πίεση
Αλλαγή -
Ανεπεξέργαστο KTPF 281035Z AUTO 00000KT 10SM BKN110 28/25 A3002 RMK AO2

VFR

28°C / 25°C

[Περισσότερο]
Άνεμος variable 0kt
Ορατότητα >10km
Καιρός -
Νέφη Broken Clouds 11000ft
Πίεση
Αλλαγή -
Ανεπεξέργαστο KTPF 281015Z AUTO 00000KT 10SM BKN110 28/25 A3002 RMK AO2

VFR

28°C / 24°C

[Περισσότερο]
Άνεμος variable 0kt
Ορατότητα >10km
Καιρός -
Νέφη Broken Clouds 11000ft
Πίεση
Αλλαγή -
Ανεπεξέργαστο KTPF 280955Z AUTO 00000KT 10SM BKN110 28/24 A3002 RMK AO2

VFR

28°C / 25°C

[Περισσότερο]
Άνεμος variable 0kt
Ορατότητα >10km
Καιρός -
Νέφη Overcast 11000ft
Πίεση
Αλλαγή -
Ανεπεξέργαστο KTPF 280935Z AUTO 00000KT 10SM OVC110 28/25 A3001 RMK AO2

VFR

28°C / 25°C

[Περισσότερο]
Άνεμος 240º 3kt
Ορατότητα >10km
Καιρός -
Νέφη Broken Clouds 11000ft
Πίεση
Αλλαγή -
Ανεπεξέργαστο KTPF 280915Z AUTO 24003KT 10SM BKN110 28/25 A3001 RMK AO2

VFR

28°C / 25°C

[Περισσότερο]
Άνεμος variable 0kt
Ορατότητα >10km
Καιρός -
Νέφη Broken Clouds 11000ft
Πίεση
Αλλαγή -
Ανεπεξέργαστο KTPF 280855Z AUTO 00000KT 10SM BKN110 28/25 A3001 RMK AO2

VFR

28°C / 25°C

[Περισσότερο]
Άνεμος variable 0kt
Ορατότητα >10km
Καιρός -
Νέφη Broken Clouds 11000ft
Πίεση
Αλλαγή -
Ανεπεξέργαστο KTPF 280835Z AUTO 00000KT 10SM BKN110 28/25 A3001 RMK AO2

VFR

28°C / 25°C

[Περισσότερο]
Άνεμος variable 0kt
Ορατότητα >10km
Καιρός -
Νέφη Scattered Clouds 11000ft
Πίεση
Αλλαγή -
Ανεπεξέργαστο KTPF 280815Z AUTO 00000KT 10SM SCT110 28/25 A3001 RMK AO2

VFR

28°C / 25°C

[Περισσότερο]
Άνεμος 220º 3kt
Ορατότητα >10km
Καιρός -
Νέφη Broken Clouds 11000ft
Πίεση
Αλλαγή -
Ανεπεξέργαστο KTPF 280755Z AUTO 22003KT 10SM BKN110 28/25 A3001 RMK AO2

VFR

28°C / 25°C

[Περισσότερο]
Άνεμος 220º 3kt
Ορατότητα >10km
Καιρός -
Νέφη Overcast 11000ft
Πίεση
Αλλαγή -
Ανεπεξέργαστο KTPF 280735Z AUTO 22003KT 10SM OVC110 28/25 A3001 RMK AO2

VFR

28°C / 25°C

[Περισσότερο]
Άνεμος variable 0kt
Ορατότητα >10km
Καιρός -
Νέφη Overcast 11000ft
Πίεση
Αλλαγή -
Ανεπεξέργαστο KTPF 280715Z AUTO 00000KT 10SM OVC110 28/25 A3002 RMK AO2

VFR

28°C / 25°C

[Περισσότερο]
Άνεμος variable 0kt
Ορατότητα >10km
Καιρός -
Νέφη Overcast 11000ft
Πίεση
Αλλαγή -
Ανεπεξέργαστο KTPF 280655Z AUTO 00000KT 10SM OVC110 28/25 A3002 RMK AO2

VFR

28°C / 25°C

[Περισσότερο]
Άνεμος variable 0kt
Ορατότητα >10km
Καιρός -
Νέφη Broken Clouds 11000ft
Πίεση
Αλλαγή -
Ανεπεξέργαστο KTPF 280635Z AUTO 00000KT 10SM BKN110 28/25 A3002 RMK AO2

VFR

28°C / 25°C

[Περισσότερο]
Άνεμος variable 0kt
Ορατότητα >10km
Καιρός -
Νέφη Broken Clouds 11000ft
Πίεση
Αλλαγή -
Ανεπεξέργαστο KTPF 280615Z AUTO 00000KT 10SM BKN110 28/25 A3002 RMK AO2

VFR

28°C / 25°C

[Περισσότερο]
Άνεμος variable 0kt
Ορατότητα >10km
Καιρός -
Νέφη Broken Clouds 11000ft
Πίεση
Αλλαγή -
Ανεπεξέργαστο KTPF 280555Z AUTO 00000KT 10SM BKN110 28/25 A3002 RMK AO2

VFR

28°C / 25°C

[Περισσότερο]
Άνεμος variable 0kt
Ορατότητα >10km
Καιρός -
Νέφη Broken Clouds 11000ft
Πίεση
Αλλαγή -
Ανεπεξέργαστο KTPF 280535Z AUTO 00000KT 10SM BKN110 28/25 A3003 RMK AO2

VFR

28°C / 25°C

[Περισσότερο]
Άνεμος variable 0kt
Ορατότητα >10km
Καιρός -
Νέφη Broken Clouds 11000ft
Πίεση
Αλλαγή -
Ανεπεξέργαστο KTPF 280515Z AUTO 00000KT 10SM BKN110 28/25 A3003 RMK AO2

VFR

28°C / 25°C

[Περισσότερο]
Άνεμος variable 0kt
Ορατότητα >10km
Καιρός -
Νέφη Broken Clouds 11000ft
Πίεση
Αλλαγή -
Ανεπεξέργαστο KTPF 280455Z AUTO 00000KT 10SM BKN110 28/25 A3003 RMK AO2

VFR

28°C / 25°C

[Περισσότερο]
Άνεμος variable 0kt
Ορατότητα >10km
Καιρός -
Νέφη Scattered Clouds 2400ft
Πίεση
Αλλαγή -
Ανεπεξέργαστο KTPF 280435Z AUTO 00000KT 10SM SCT024 OVC110 28/25 A3004 RMK AO2

VFR

28°C / 25°C

[Περισσότερο]
Άνεμος 260º 3kt
Ορατότητα >10km
Καιρός -
Νέφη Scattered Clouds 2400ft
Πίεση
Αλλαγή -
Ανεπεξέργαστο KTPF 280415Z AUTO 26003KT 10SM SCT024 OVC110 28/25 A3004 RMK AO2

VFR

28°C / 25°C

[Περισσότερο]
Άνεμος variable 0kt
Ορατότητα >10km
Καιρός -
Νέφη Scattered Clouds 2400ft
Πίεση
Αλλαγή -
Ανεπεξέργαστο KTPF 280355Z AUTO 00000KT 10SM SCT024 OVC110 28/25 A3003 RMK AO2

VFR

28°C / 25°C

[Περισσότερο]
Άνεμος variable 0kt
Ορατότητα >10km
Καιρός -
Νέφη Scattered Clouds 2200ft
Πίεση
Αλλαγή -
Ανεπεξέργαστο KTPF 280335Z AUTO 00000KT 10SM SCT022 BKN110 28/25 A3003 RMK AO2

VFR

29°C / 25°C

[Περισσότερο]
Άνεμος 280º 3kt
Ορατότητα >10km
Καιρός -
Νέφη Scattered Clouds 2200ft
Πίεση
Αλλαγή -
Ανεπεξέργαστο KTPF 280315Z AUTO 28003KT 10SM SCT022 BKN110 29/25 A3003 RMK AO2

rainNOW: Nowcast βροχής για Τάμπα και περιφέρεια (25km ακτίνα)

0.0 χιλιοστά
0.0 χιλιοστά
0.0 χιλιοστά
0.0 χιλιοστά
0.0 χιλιοστά
0.0 χιλιοστά
0.0 χιλιοστά
0.0 χιλιοστά
0.0 χιλιοστά
0.0 χιλιοστά
0.0 χιλιοστά
0.0 χιλιοστά

Τρέχουσες εικόνες δορυφόρου για Τάμπα, Ηνωμένες Πολιτείες της Αμερικής

Η ένδειξη τοποθεσίας τοποθετείται στο Τάμπα. [Περισσότερο]

Οι δορυφορικές εικόνες σε πραγματικό χρόνο συνδυάζουν ορατό φως κατά τη διάρκεια της ημέρας με υπέρυθρη ακτινοβολία κατά τη διάρκεια της νύχτας. Κατά τη διάρκεια της νύχτας, η εικόνα δεν είναι σκοτεινή μιας και η υπέρυθρη ακτινοβολία μπορεί να εντοπίσει τις διαφορές στη θερμοκρασία. Δυστυχώς, είναι δύσκολο να ξεχωρίσουν οι χαμηλές νεφώσεις και η ομίχλη από τις θερμοκρασίες εδάφους και έτσι μπορεί να είναι σχετικά αόρατα κατά τη διάρκεια της νύχτας. Οι εικόνες από τον δορυφόρο Meteosat για την Ευρώπη ενημερώνονται σε πραγματικό χρόνο κάθε 5 λεπτά. Οι εικόνες από τους δορυφόρους GOES-16/GOES-17 (Βόρεια & Λατινική Αμερική) και Himawari (Ασία) ενημερώνονται κάθε 10 λεπτά.

Ραντάρ και πρόγνωση υετού μικρής δειάρκειας για Τάμπα

Ψιλοβρέχει
Φως
Μέτρια
Βαριά
Πολύ βαρύ
Χαλάζι

Ο δείκτης θέσης τοποθετείται στο Τάμπα. Αυτή η κινούμενη εικόνα δείχνει την ραντάρ βροχόπτωσης για την τελευταία ώρα, καθώς και 1πρόγνωση h. Ψεκάδες (ψιλόβροχο) ή ελαφρά χιονόπτωση, μπορεί να είναι αόρατα στο ραντάρ. Η ένταση βροχόπτωσης κωδικοποιείται με χρώματα που κυμαίνονται από γαλάζιο έως σκούρο μοβ.